Location: Kalisz
(51.7636°N, 18.0893°E)
Time: 09:04:14
(UTC+02:00)

ISS - Visible Passes

Search period start: 18 October 2019 00:00
Search period end: 27 October 2019 23:00
Orbit: 411 x 421 km, 51.6° (Epoch: 18 October)

Date Brightness Start Highest point End Pass type
(mag) Time Alt. Az. Time Alt. Az. Time Alt. Az.
24 Oct -0.9 06:50:58 10° S 06:53:15 17° SE 06:55:33 10° E visible
25 Oct -0.7 06:03:35 10° SSE 06:04:51 12° SE 06:06:08 10° ESE visible
26 Oct -2.0 06:49:22 10° SW 06:52:24 32° SSE 06:55:27 10° E visible
27 Oct -1.6 05:01:10 10° SSW 05:03:54 23° SE 05:06:37 10° E visible
